Location: Lake Arresoe
(56.0000°N, 12.5000°E)
Time: 08:11:52
(UTC+02:00)

Cosmos 2058 - Visible Passes

Search period start: 25 July 2021 00:00
Search period end: 04 August 2021 00:00
Orbit: 563 x 582 km, 82.5° (Epoch: 24 July)

Date Brightness Start Highest point End Pass type
(mag) Time Alt. Az. Time Alt. Az. Time Alt. Az.
25 Jul 5.4 23:10:56 10° WSW 23:14:17 23° WNW 23:17:40 10° N visible
26 Jul 5.7 23:14:00 10° WSW 23:17:04 19° WNW 23:20:09 10° NNW visible
27 Jul 5.8 23:17:10 10° W 23:19:52 16° WNW 23:22:36 10° NNW visible
28 Jul 6.0 23:20:27 10° W 23:22:42 14° NW 23:24:56 10° NNW visible
29 Jul 6.2 23:23:57 10° WNW 23:25:32 12° NW 23:27:07 10° NNW visible
03 Aug 5.7 21:57:55 10° WSW 22:01:22 24° WNW 22:04:50 10° N visible
